EDT,Max TemperatureF,Mean TemperatureF,Min TemperatureF,Max Dew PointF,MeanDew PointF,Min DewpointF,Max Humidity, Mean Humidity, Min Humidity, Max Sea Level PressureIn, Mean Sea Level PressureIn, Min Sea Level PressureIn, Max VisibilityMiles, Mean VisibilityMiles, Min VisibilityMiles, Max Wind SpeedMPH, Mean Wind SpeedMPH, Max Gust SpeedMPH,PrecipitationIn, CloudCover, Events, WindDirDegrees
2013-4-1,59,50,41,45,37,28,100,72,41,30.08,29.97,29.89,10,7,0,18,5,29,0.00,6,,286
2013-4-2,51,40,30,28,18,9,75,42,20,30.22,30.16,30.08,10,10,10,13,4,17,0.00,0,,311
2013-4-3,51,40,28,27,17,10,80,42,19,30.31,30.25,30.21,10,10,10,12,2,17,0.00,0,,46
2013-4-4,50,44,37,37,27,14,93,64,26,30.22,30.10,29.97,10,8,1,10,3,21,0.00,5,,84
2013-4-5,62,50,39,39,34,25,93,62,25,30.10,30.02,29.97,10,8,0,14,2,20,0.00,4,,315
2013-4-6,69,50,32,36,31,23,100,52,18,30.20,30.12,30.05,10,10,3,9,1,,0.00,0,,124
2013-4-7,71,61,51,39,35,32,47,36,26,30.13,30.08,30.04,10,10,10,13,3,26,0.00,2,,220
2013-4-8,73,62,50,46,43,37,76,49,36,30.10,30.06,30.02,10,10,10,13,3,25,0.00,4,,220
2013-4-9,80,66,51,52,48,45,82,54,30,30.19,30.12,30.05,10,10,10,9,2,18,0.00,2,,191
2013-4-10,84,74,64,54,49,39,64,44,23,30.12,30.03,29.91,10,10,10,12,3,17,0.00,1,,242
2013-4-11,80,68,55,57,51,46,100,53,32,29.92,29.82,29.66,10,9,3,16,3,26,0.00,5,,200
2013-4-12,62,54,46,55,41,32,94,63,34,29.94,29.79,29.58,10,10,4,16,7,25,0.00,5,,260
2013-4-13,66,52,39,39,34,28,93,54,24,30.07,30.02,29.94,10,10,10,17,3,29,0.00,1,,266
2013-4-14,73,55,37,52,37,32,100,57,22,30.09,30.02,29.93,10,10,3,9,2,20,0.00,2,,119
2013-4-15,73,62,51,52,49,46,100,64,41,30.10,30.02,29.94,10,10,7,10,3,16,0.00,5,,123
2013-4-16,82,70,59,57,53,50,77,57,32,30.24,30.17,30.11,10,10,10,8,1,,0.00,2,,199
2013-4-17,68,64,59,59,57,55,100,82,64,30.30,30.18,30.08,10,7,0,12,3,32,0.00,4,,68
2013-4-18,80,68,55,57,53,45,94,60,34,30.07,29.99,29.82,10,10,4,9,2,22,0.00,3,,143
2013-4-19,69,56,42,59,45,30,94,70,53,30.06,29.83,29.68,10,9,3,15,6,37,0.00,6,,248
2013-4-20,59,46,32,34,28,21,100,55,25,30.32,30.19,30.07,10,10,0,16,6,22,0.00,2,,312
2013-4-21,64,48,33,34,30,27,93,49,26,30.42,30.34,30.28,10,10,10,9,2,,0.00,0,,86
2013-4-22,69,58,46,41,34,32,71,42,25,30.36,30.26,30.16,10,10,10,8,3,,0.00,0,,106
2013-4-23,71,58,46,43,36,30,76,42,29,30.22,30.13,30.03,10,10,10,8,3,,0.00,0,,99
2013-4-24,68,55,42,55,46,37,88,66,48,30.25,30.05,29.96,10,9,4,16,5,30,0.00,5,,247
2013-4-25,62,50,37,41,33,23,93,58,24,30.37,30.30,30.24,10,10,10,10,1,17,0.00,4,,252
2013-4-26,68,50,33,39,33,28,100,57,24,30.44,30.38,30.30,10,9,2,9,1,,0.00,2,,144
2013-4-27,57,54,50,52,47,41,94,81,62,30.35,30.27,30.13,10,9,4,10,3,16,0.00,8,,90
2013-4-28,59,55,51,52,51,48,94,85,72,30.13,30.04,29.95,10,8,0,12,5,23,0.00,8,,96
2013-4-29,68,60,51,54,52,50,100,78,56,30.04,30.01,29.97,10,9,1,8,1,,0.00,7,,274
2013-4-30,78,64,50,55,49,43,100,70,29,30.13,30.06,30.01,10,6,0,7,2,,0.00,4,,120